{"data":{"norad_id":48798,"intl_designator":"2021-045AH","name":"ONEWEB-0248","alt_names":[],"object_type":"PAYLOAD","status":"ACTIVE","operator":null,"country":"UK","launch_date":"2021-05-28","launch_site_code":"VOSTO","launch_vehicle":null,"mission":null,"orbit_class":"UNKNOWN","rcs_meters":null,"size_class":null,"mass_kg":null,"dimensions":null,"purposes":["comms"],"wikipedia_slug":null,"has_3d_model":false,"image_url":null,"decayed_at":null,"tle_current":{"epoch":"2026-09-20T04:25:07.660416Z","epoch_age_seconds":49210,"freshness":"FRESH","line1":"1 48798U 21045AH  26263.18411644  .00000007  00000+0 -15136-4 0  9993","line2":"2 48798  87.8996 240.2541 0001797  69.0853 291.0469 13.15549494256906","mean_motion":13.15549494,"eccentricity":0.0001797,"inclination_deg":87.8996,"raan_deg":240.2541,"arg_perigee_deg":69.0853,"mean_anomaly_deg":291.0469,"bstar":-1.5136e-5,"rev_number":25690,"period_min":109.45996380734,"perigee_km":1200.4050326062,"apogee_km":1203.1292501546,"semimajor_km":7579.9041413804,"source":"CELESTRAK","updated_at":"2026-09-20T09:00:44.621744Z"}}}